DN9EM-2 Weather Reports


time (UTC)temp
C
wind
direction
speed
KPH
gust
KPH
rain 1hr
cm
rain 24hr
cm
rain mn
cm
humidity
%
barometer
mb
20260507130047 15 330 4.8 11.3 0.00 0.00 0.00 46 1017.7
20260507125044 15 291 1.6 6.4 0.00 0.00 0.00 47 1017.7
20260507124041 15 359 3.2 9.7 0.00 0.00 0.00 46 1017.6
20260507123039 15 307 3.2 11.3 0.00 0.00 0.00 46 1017.6
20260507122036 15 309 1.6 9.7 0.00 0.00 0.00 47 1017.6
20260507121033 15 330 1.6 11.3 0.00 0.00 0.00 48 1017.5
20260507120030 15 152 1.6 12.9 0.00 0.00 0.00 48 1017.4
20260507115028 15 353 0.0 3.2 0.00 0.00 0.00 49 1017.5
20260507114025 15 240 1.6 6.4 0.00 0.00 0.00 48 1017.4
20260507113023 15 312 3.2 17.7 0.00 0.00 0.00 51 1017.4
20260507112020 14 340 1.6 6.4 0.00 0.00 0.00 52 1017.4
20260507111017 15 323 1.6 6.4 0.00 0.00 0.00 51 1017.3
20260507110015 16 259 0.0 3.2 0.00 0.00 0.00 49 1017.3
20260507105112 16 338 0.0 6.4 0.00 0.00 0.00 49 1017.2
20260507104110 16 248 0.0 3.2 0.00 0.00 0.00 49 1017.3
20260507103107 15 326 1.6 6.4 0.00 0.00 0.00 51 1017.2
20260507102105 15 136 1.6 6.4 0.00 0.00 0.00 51 1017.1
20260507101102 15 0.0 3.2 0.00 0.00 0.00 50 1017.0
20260507100059 15 350 1.6 6.4 0.00 0.00 0.00 51 1016.9
20260507095056 14 322 0.0 3.2 0.00 0.00 0.00 52 1016.9
20260507094053 14 338 0.0 3.2 0.00 0.00 0.00 54 1016.7
20260507093051 13 254 1.6 6.4 0.00 0.00 0.00 55 1016.7
20260507092048 13 326 1.6 6.4 0.00 0.00 0.00 57 1016.7
20260507091045 13 341 1.6 9.7 0.00 0.00 0.00 57 1016.7
20260507090043 13 315 0.0 3.2 0.00 0.00 0.00 59 1016.7
20260507085040 13 305 1.6 6.4 0.00 0.00 0.00 59 1016.5
20260507084037 13 333 1.6 17.7 0.00 0.00 0.00 60 1016.6
20260507083035 13 203 0.0 3.2 0.00 0.00 0.00 59 1016.5
20260507082032 13 351 0.0 3.2 0.00 0.00 0.00 61 1016.5
20260507081029 12 270 0.0 3.2 0.00 0.00 0.00 62 1016.4
20260507080027 12 293 0.0 6.4 0.00 0.00 0.00 62 1016.3
20260507075024 12 316 0.0 3.2 0.00 0.00 0.00 62 1016.2
20260507074021 13 293 0.0 11.3 0.00 0.00 0.00 63 1016.1
20260507073019 12 347 1.6 6.4 0.00 0.00 0.00 66 1016.2
20260507072016 12 309 0.0 6.4 0.00 0.00 0.00 66 1016.2
20260507071114 12 0.0 3.2 0.00 0.00 0.00 68 1016.2
20260507070111 12 315 0.0 3.2 0.00 0.00 0.00 67 1016.0
20260507065108 11 328 1.6 6.4 0.00 0.00 0.00 68 1015.9
20260507064106 11 0.0 3.2 0.00 0.00 0.00 69 1015.9
20260507063103 11 0.0 3.2 0.00 0.00 0.00 69 1015.8
20260507062100 11 293 0.0 3.2 0.00 0.00 0.00 70 1015.7
20260507061058 11 338 1.6 3.2 0.00 0.00 0.00 71 1015.8
20260507060055 10 347 0.0 3.2 0.00 0.00 0.00 72 1016.0
20260507055052 10 0 0.0 6.4 0.00 0.00 0.00 72 1016.0
20260507054050 9 336 1.6 3.2 0.00 0.00 0.00 74 1015.9
20260507053047 9 180 0.0 3.2 0.00 0.00 0.00 75 1015.8
20260507052044 9 338 0.0 3.2 0.00 0.00 0.00 75 1015.6
20260507051042 8 338 0.0 3.2 0.00 0.00 0.00 76 1015.5
20260507050039 8 0.0 3.2 0.00 0.00 0.00 78 1015.2
20260507045036 8 158 0.0 3.2 0.00 0.00 0.00 78 1014.7
20260507044034 7 0.0 0.0 0.00 0.00 0.00 82 1014.5
20260507043031 7 0.0 0.0 0.00 0.00 0.00 83 1014.4
20260507042029 6 0.0 0.0 0.00 0.00 0.00 84 1014.3
20260507041026 6 0.0 0.0 0.00 0.00 0.00 84 1014.2
20260507040023 6 0.0 0.0 0.00 0.00 0.00 84 1014.0
20260507035021 7 0.0 0.0 0.00 0.00 0.00 83 1013.9
20260507034018 7 0.0 3.2 0.00 0.00 0.00 83 1013.9
20260507033015 7 0.0 0.0 0.00 0.00 0.00 82 1013.6
20260507032113 7 338 0.0 3.2 0.00 0.00 0.00 82 1013.6
20260507031111 7 0.0 3.2 0.00 0.00 0.00 82 1013.6
20260507030108 7 0.0 3.2 0.00 0.00 0.00 81 1013.5
20260507025105 8 0.0 3.2 0.00 0.00 0.00 80 1013.7
20260507024103 8 0.0 3.2 0.00 0.00 0.00 80 1013.5
20260507023100 8 352 0.0 6.4 0.00 0.00 0.00 80 1013.5
20260507022057 8 187 0.0 3.2 0.00 0.00 0.00 80 1013.3
20260507021055 8 270 0.0 3.2 0.00 0.00 0.00 80 1013.2
20260507020052 8 338 0.0 3.2 0.00 0.00 0.00 80 1013.1
20260507015049 8 106 1.6 6.4 0.00 0.00 0.00 80 1013.1
20260507014047 8 0.0 3.2 0.00 0.00 0.00 80 1012.9
20260507013044 8 0.0 3.2 0.00 0.00 0.00 80 1012.9
20260507012041 8 220 1.6 6.4 0.00 0.00 0.00 80 1012.8
20260507011038 8 0 0.0 3.2 0.00 0.00 0.00 80 1012.8
20260507010036 8 210 0.0 3.2 0.00 0.00 0.00 80 1012.8
20260507005033 8 315 0.0 6.4 0.00 0.00 0.00 80 1012.7
20260507004030 8 49 1.6 6.4 0.00 0.00 0.00 80 1012.7
20260507003028 8 340 1.6 3.2 0.00 0.00 0.00 79 1012.7
20260507002025 8 14 1.6 6.4 0.00 0.00 0.00 79 1012.6
20260507001023 9 45 0.0 3.2 0.00 0.00 0.00 79 1012.5
20260507000020 9 295 1.6 3.2 0.00 0.00 0.00 79 1012.7
20260506235017 9 234 0.0 3.2 0.00 0.00 0.00 79 1012.6
20260506234015 9 0.0 3.2 0.00 0.00 0.00 79 1012.7
20260506233112 9 344 0.0 6.4 0.00 0.00 0.00 79 1012.6
20260506232109 9 326 0.0 3.2 0.00 0.00 0.00 79 1012.5
20260506231107 9 344 0.0 6.4 0.00 0.00 0.00 79 1012.5
20260506230104 9 360 0.0 3.2 0.00 0.00 0.00 79 1012.5
20260506225101 9 0.0 3.2 0.00 0.00 0.00 79 1012.4
20260506224059 9 73 1.6 6.4 0.00 0.00 0.00 79 1012.4
20260506223056 9 135 0.0 6.4 0.00 0.00 0.00 79 1012.4
20260506222054 9 77 0.0 6.4 0.00 0.00 0.00 79 1012.2
20260506221051 9 0 0.0 6.4 0.00 0.00 0.00 79 1012.3
20260506220048 9 124 1.6 6.4 0.00 0.00 0.00 79 1012.2
20260506215046 9 0.0 3.2 0.00 0.00 0.00 78 1012.2
20260506214043 9 0 0.0 3.2 0.00 0.00 0.00 78 1012.2
20260506213041 10 0 1.6 3.2 0.00 0.00 0.00 77 1012.0
20260506212038 10 241 1.6 3.2 0.00 0.00 0.00 76 1011.9
20260506211035 10 360 0.0 3.2 0.00 0.00 0.00 75 1012.1
20260506210033 10 164 0.0 3.2 0.00 0.00 0.00 75 1012.0
20260506205030 10 293 0.0 6.4 0.00 0.00 0.00 74 1012.0
20260506204027 10 0.0 3.2 0.00 0.00 0.00 73 1012.0
20260506203025 10 351 1.6 6.4 0.00 0.00 0.00 72 1012.0
20260506202022 10 225 0.0 3.2 0.00 0.00 0.00 71 1011.9
20260506201019 10 23 0.0 3.2 0.00 0.00 0.00 70 1011.8
20260506200017 10 338 0.0 3.2 0.00 0.00 0.00 68 1011.9
20260506195114 11 0.0 6.4 0.00 0.00 0.00 66 1011.6
20260506194112 11 338 0.0 3.2 0.00 0.00 0.00 66 1011.6
20260506193109 11 338 0.0 3.2 0.00 0.00 0.00 66 1011.5
20260506192101 11 0.0 0.0 0.00 0.00 0.00 65 1011.4
20260506191058 11 0.0 3.2 0.00 0.00 0.00 60 1011.4
20260506190055 11 300 0.0 3.2 0.00 0.00 0.00 58 1011.2
20260506185048 11 203 0.0 3.2 0.00 0.00 0.00 57 1011.1
20260506184045 11 338 0.0 3.2 0.00 0.00 0.00 57 1011.0
20260506183037 12 306 1.6 9.7 0.00 0.00 0.00 55 1011.0
20260506182034 12 301 1.6 6.4 0.00 0.00 0.00 54 1010.9
20260506181032 12 213 1.6 6.4 0.00 0.00 0.00 56 1010.9
20260506180023 12 171 1.6 9.7 0.00 0.00 0.00 62 1010.8
20260506175020 12 293 0.0 3.2 0.00 0.00 0.00 65 1010.8
20260506174112 12 270 0.0 3.2 0.00 0.00 0.00 66 1010.7
20260506173110 12 0 0.0 3.2 0.00 0.00 0.00 66 1010.6
20260506172101 12 0.0 0.0 0.00 0.00 0.00 66 1010.6
20260506171058 12 0.0 0.0 0.00 0.00 0.00 66 1010.5
20260506170055 12 0.0 0.0 0.00 0.00 0.00 67 1010.4
20260506165047 13 0.0 0.0 0.00 0.00 0.00 66 1010.4
20260506164044 13 0.0 3.2 0.00 0.00 0.00 64 1010.5
20260506163036 13 0.0 3.2 0.00 0.00 0.00 62 1010.4
20260506162033 13 23 0.0 3.2 0.00 0.00 0.00 61 1010.4
20260506161024 13 37 1.6 3.2 0.00 0.00 0.00 60 1010.6
20260506160022 13 203 0.0 3.2 0.00 0.00 0.00 60 1010.6
20260506155019 13 338 0.0 3.2 0.00 0.00 0.00 61 1010.6
20260506154111 13 0 0.0 6.4 0.00 0.00 0.00 58 1010.7
20260506153108 13 0.0 3.2 0.00 0.00 0.00 59 1010.7
20260506152100 13 0.0 3.2 0.00 0.00 0.00 59 1010.8
20260506151057 13 0.0 0.0 0.00 0.00 0.00 60 1010.8
20260506150049 13 0.0 3.2 0.00 0.00 0.00 60 1010.8
20260506145046 13 0.0 3.2 0.00 0.00 0.00 60 1010.8
20260506144043 13 0 1.6 3.2 0.00 0.00 0.00 57 1010.8
20260506143035 13 11 0.0 3.2 0.00 0.00 0.00 57 1010.9
20260506142032 14 0.0 0.0 0.00 0.00 0.00 54 1010.9
20260506141023 14 0 0.0 3.2 0.00 0.00 0.00 52 1010.9
20260506140021 13 342 3.2 6.4 0.00 0.00 0.00 49 1011.0
20260506135113 14 323 1.6 9.7 0.00 0.00 0.00 51 1010.8
20260506133108 14 311 1.6 3.2 0.00 0.00 0.00 48 1010.9
20260506132100 14 217 1.6 6.4 0.00 0.00 0.00 47 1010.8
20260506131057 14 355 0.0 6.4 0.00 0.00 0.00 48 1010.9